Location: Grieser Field
(39.7333°N, 81.7975°W)
Time: 13:54:54
(UTC-04:00)

Meteor 2-1 Rocket - Visible Passes

Search period start: 23 July 2014 00:00
Search period end: 02 August 2014 00:00
Orbit: 830 x 908 km, 81.3° (Epoch: 22 July)

Date Brightness Start Highest point End Pass type
(mag) Time Alt. Az. Time Alt. Az. Time Alt. Az.
23 Jul 4.4 05:22:43 10° S 05:28:11 75° E 05:33:44 10° NNE visible
24 Jul 4.4 05:16:08 10° S 05:21:36 77° E 05:27:10 10° NNE visible
25 Jul 4.3 05:09:33 10° S 05:15:02 79° E 05:20:37 10° NNE visible
26 Jul 4.3 05:02:58 10° S 05:08:28 81° E 05:14:03 10° NNE visible
27 Jul 4.2 04:56:24 10° S 05:01:53 83° E 05:07:30 10° N visible
28 Jul 4.2 04:50:26 13° S 04:55:19 85° E 05:00:56 10° N visible
29 Jul 4.2 04:44:25 17° S 04:48:45 87° E 04:54:22 10° N visible
30 Jul 4.2 04:38:23 21° S 04:42:10 89° E 04:47:49 10° N visible
31 Jul 4.1 04:32:18 26° S 04:35:36 89° W 04:41:15 10° N visible
01 Aug 6.8 02:45:58 10° E 02:46:41 10° E 02:47:24 10° ENE visible
01 Aug 4.1 04:26:12 31° S 04:29:02 87° W 04:34:41 10° N visible
